[[{"header":{"parameterUnit":"m.s-1","parameterCategory":1,"la1":30.2992,"la2":30.254,"lo1":-89.0895,"lo2":-89.0443,"dy":0.0025,"dx":0.0025,"nx":19,"ny":19,"refTime":"2026-05-10T03:00:00:Z","depth":0,"parameterNumber":2,"parameterNumberName":"U-component_of_WINDS"},"data":[0,0,0,-0.7075,-0.7075,-0.7062,-0.7062,-0.7059,-0.7059,0,0,0,0,0,0,0,0,0,0,0,-0.7085,-0.7085,-0.7075,-0.7075,-0.7062,-0.7062,-0.7059,-0.7059,0,0,0,0,0,0,0,0,0,0,0,-0.7085,-0.7085,-0.7086,-0.7075,-0.7062,-0.7062,-0.7059,-0.7064,0,0,0,0,0,0,0,0,0,0,-0.7074,-0.709,-0.7085,-0.7086,-0.7074,-0.7062,-0.7062,-0.7064,-0.7064,-0.7069,0,-0.7076,0,-0.7067,-0.7059,-0.7059,0,0,0,-0.707,-0.709,-0.7081,-0.7086,-0.7074,-0.7062,-0.7066,-0.7064,-0.7063,-0.7069,-0.7076,-0.7075,-0.7067,-0.7059,-0.7059,-0.7109,-0.7109,0,0,-0.707,-0.7087,-0.7081,-0.7081,-0.7083,-0.7067,-0.7066,-0.7063,-0.7072,-0.7076,-0.7075,-0.7067,-0.7059,-0.706,-0.7108,-0.7109,0,0,0,-0.7076,-0.7088,-0.7078,-0.7081,-0.7078,-0.7067,-0.7066,-0.7072,-0.7067,-0.7075,-0.7067,-0.706,-0.706,-0.7108,-0.7109,-0.7148,0,0,0,-0.7076,-0.709,-0.7078,-0.7088,-0.7078,-0.7075,-0.7075,-0.7068,-0.7067,-0.7067,-0.706,-0.706,-0.7107,-0.7108,-0.7145,-0.7164,0,0,0,-0.7084,-0.7091,-0.7092,-0.7089,-0.7084,-0.7074,-0.7069,-0.7067,-0.7062,-0.7059,-0.706,-0.7107,-0.7108,-0.7144,-0.7161,-0.7183,0,0,0,-0.7097,-0.7127,-0.7093,-0.7123,-0.7085,-0.7098,-0.7069,-0.7078,-0.7081,-0.706,-0.7107,-0.7108,-0.7143,-0.7159,-0.7181,-0.7205,-0.7216,0,0,-0.7144,-0.7133,-0.7149,-0.7119,-0.7142,-0.7099,-0.7128,-0.7115,-0.71,-0.7107,-0.7108,-0.7146,-0.716,-0.7182,-0.7271,-0.728,0,0,0,-0.717,-0.7182,-0.7185,-0.7187,-0.7177,-0.7171,-0.7151,-0.7146,-0.7151,-0.7106,-0.7159,-0.7167,-0.7179,-0.719,-0.7198,-0.7208,-0.7114,-0.7114,-0.7114,-0.7261,-0.7239,-0.7265,-0.7243,-0.7245,-0.7224,-0.7225,-0.7215,-0.7193,-0.7205,-0.7208,-0.7264,-0.7278,-0.7283,-0.7294,-0.7218,-0.7218,-0.7218,-0.7218,-0.7329,-0.7343,-0.7312,-0.7326,-0.7304,-0.7316,-0.7297,-0.7281,-0.7289,-0.7261,-0.727,-0.7243,-0.7294,-0.7302,-0.7221,-0.722,-0.722,-0.722,-0.7219,-0.7387,-0.7391,-0.7383,-0.7385,-0.7388,-0.7364,-0.7374,-0.7352,-0.7332,-0.7342,-0.7343,-0.7342,-0.734,-0.7343,-0.7343,-0.7344,-0.7344,-0.7344,-0.7344,-0.7452,-0.7442,-0.7452,-0.7444,-0.7443,-0.7439,-0.7418,-0.7416,-0.7409,-0.7393,-0.7393,-0.7371,-0.7302,-0.7287,-0.7347,-0.7346,-0.7346,-0.7346,-0.7346,-0.7531,-0.7509,-0.7526,-0.7525,-0.7513,-0.7519,-0.7491,-0.749,-0.7485,-0.7491,-0.7466,-0.7418,-0.7406,-0.74,-0.7387,-0.7469,-0.7469,-0.7469,-0.7469,-0.7582,-0.7573,-0.7585,-0.7584,-0.7582,-0.7558,-0.7578,-0.7562,-0.7542,-0.7538,-0.7523,-0.7503,-0.7497,-0.7488,-0.748,-0.7468,-0.7569,-0.7569,-0.7569,-0.763,-0.762,-0.7641,-0.762,-0.7609,-0.7601,-0.762,-0.7622,-0.7594,-0.7573,-0.7535,-0.7531,-0.7499,-0.7489,-0.7469,-0.7457,-0.7433,0,0]},{"header":{"parameterUnit":"m.s-1","parameterCategory":1,"la1":30.2992,"la2":30.254,"lo1":-89.0895,"lo2":-89.0443,"dy":0.0025,"dx":0.0025,"nx":19,"ny":19,"refTime":"2026-05-10T03:00:00:Z","depth":0,"parameterNumber":3,"parameterNumberName":"V-component_of_WINDS"},"data":[0,0,0,0.5836,0.5835,0.58,0.58,0.5763,0.5763,0,0,0,0,0,0,0,0,0,0,0,0.5851,0.5851,0.5836,0.5835,0.58,0.58,0.5763,0.5763,0,0,0,0,0,0,0,0,0,0,0,0.5851,0.5851,0.5851,0.5835,0.58,0.58,0.5763,0.5787,0,0,0,0,0,0,0,0,0,0,0.5819,0.5838,0.5851,0.5851,0.5835,0.58,0.58,0.5788,0.5785,0.5782,0,0.5781,0,0.5771,0.5761,0.5761,0,0,0,0.5831,0.584,0.5826,0.5851,0.5834,0.58,0.5815,0.5786,0.5783,0.5779,0.578,0.5779,0.5771,0.5761,0.576,0.5757,0.5757,0,0,0.5833,0.5847,0.5828,0.5825,0.5831,0.5816,0.5814,0.5784,0.5787,0.578,0.5778,0.577,0.576,0.576,0.5756,0.5757,0,0,0,0.5841,0.5849,0.5835,0.5827,0.582,0.5815,0.5812,0.5788,0.5782,0.5777,0.577,0.576,0.576,0.5756,0.5757,0.5778,0,0,0,0.5842,0.5853,0.5836,0.5844,0.582,0.5803,0.5817,0.5785,0.5781,0.577,0.576,0.576,0.5756,0.5756,0.5777,0.5786,0,0,0,0.5851,0.5854,0.5851,0.5845,0.5831,0.5803,0.5796,0.5783,0.5776,0.5761,0.5759,0.5756,0.5756,0.5776,0.5784,0.5789,0,0,0,0.5865,0.587,0.5851,0.5854,0.5831,0.5817,0.5796,0.5785,0.5774,0.576,0.5756,0.5757,0.5776,0.5783,0.5788,0.5796,0.58,0,0,0.5879,0.5872,0.5872,0.5855,0.5847,0.5821,0.5817,0.5794,0.5779,0.5765,0.5765,0.5777,0.5784,0.5789,0.582,0.5824,0,0,0,0.5881,0.5881,0.5876,0.5867,0.585,0.5836,0.5812,0.5803,0.5791,0.5775,0.578,0.5783,0.5786,0.5789,0.5792,0.5793,0.5758,0.5758,0.5758,0.592,0.5902,0.5901,0.5879,0.587,0.5846,0.5837,0.5822,0.5805,0.5807,0.5803,0.5824,0.5828,0.583,0.5832,0.5805,0.5805,0.5805,0.5805,0.5938,0.5936,0.5915,0.5907,0.5889,0.5882,0.5859,0.5848,0.5839,0.5825,0.5827,0.5814,0.5835,0.5835,0.5807,0.5807,0.5806,0.5806,0.5806,0.5962,0.5957,0.5947,0.5932,0.5923,0.59,0.5893,0.5876,0.586,0.5861,0.5855,0.5854,0.5852,0.5859,0.5859,0.5859,0.5859,0.5859,0.586,0.599,0.5978,0.5974,0.5957,0.5949,0.5936,0.5913,0.5904,0.5891,0.5879,0.5879,0.5863,0.584,0.5835,0.5861,0.586,0.586,0.586,0.586,0.6016,0.6007,0.6001,0.5993,0.5972,0.5964,0.5943,0.5928,0.5918,0.5915,0.59,0.5885,0.5877,0.5874,0.587,0.5903,0.5903,0.5903,0.5903,0.6036,0.603,0.602,0.6009,0.5996,0.5976,0.597,0.5952,0.5932,0.5926,0.5918,0.5911,0.5909,0.5902,0.5899,0.5894,0.5933,0.5933,0.5933,0.6051,0.6043,0.6041,0.6022,0.6004,0.599,0.5984,0.5972,0.5947,0.5934,0.592,0.5919,0.5907,0.5904,0.589,0.5885,0.5877,0,0]}]]